CZ-4 DEB, 35322

Orbit data source: Space-Track

CZ-4 DEB, 35322 is space debris in SSO originally from a launch on Thu, 14 Oct 1999 UTC launched from the Taiyaun Space Center, China (TSC). Debris objects in space refer to the collection of defunct objects orbiting the Earth. Examples of debris include non-operational satellites, rocket bodies, and fragments generated from explosions, collisions, or faulty payload assembly.

Loading next visibility...
Identifier
35322, 1999-057SA
Orbit
SSO
Country
Flag of CNCN / PRC
Related business
Manufacturer
Unknown
Mission
Spacecraft
Bus & Motor
Unknown
Mass
Unknown
Launch date (UTC)
1999-10-14 (26 years ago)
Launch vehicle
Unknown
Launch site
Taiyaun Space Center, China (TSC)
Object type
Payload
Rocket body
Debris
Shape & HBR
Unknown shape, 0.1 m
Radar Cross Section
Small (<0.1 m²)

Expand to show TLE details & history
Last TLE update: 2 days ago

TLE from 2 days ago
0 CZ-4 DEB
1 35322U 99057SA  25287.36641499  .00000728  00000-0  33586-3 0  9996
2 35322  99.1186 326.1745 0197717  66.9725 295.2165 14.14277388636422
Epoch: 2025-10-14T08:47Z
TLE epoch observation values (Epoch: 2025-10-14T08:47:38.255Z)
Latitude
0.00006°
Longitude
171.10922°
Altitude
789.152 km
Speed
7.489 km/s
True Right ascension
21h 44m 41s
True Declination
0° 00' 00"
Sunlit
Object was in full shadow at epoch
Visualization orbit readout
Latitude
Unknown
Longitude
Unknown
Altitude
Unknown
Speed
Unknown
Apparent Right ascension
Unknown
Apparent Declination
Unknown
Sunlit
N/A
Visualization observer readout
Local Sidereal Time
03:50:08
Azimuth
Unknown
Elevation
Unknown
Doppler factor
Unknown
Orbital elements
Apogee altitude
984.71 km
Perigee altitude
699.202 km
Semi-major axis
7,220.093 km
Eccentricity
0.01977
Inclination
99.1186°
RAAN
326.1745°
Arg. of periapsis
66.9725°
True anomaly
293.14539°
Mean anomaly
295.2165°
Eccentric anomaly
294.18308°
Mean motion
3.53777 °/min
Orbital period
101.76 mins
BSTAR
0.00033586
Loading maneuver chart data...
Computing Atmospheric mass density...
Loading historical data...
Loading historical data...
Loading historical data...
Loading historical data...
Loading historical data...
Loading historical data...
Loading historical data...

Documentation

Showing up to 5 results
|